Weather History for Washington, MO

Change the Weather History Date:

Sunday, November 4, 2012

  Actual Average (KSTL) Record (KSTL)
Temperature  
Mean Temperature 38 °F 52 °F  
Max Temperature 51 °F 61 °F 82 °F (1978)
Min Temperature 26 °F 43 °F 18 °F (1951)
Degree Days  
Heating Degree Days 26 13  
Month to date heating degree days 50  
Since 1 July heating degree days 326  
Cooling Degree Days 0 0  
Month to date cooling degree days 0  
Year to date cooling degree days 1642  
Moisture  
Dew Point 32 °F    
Average Humidity 80    
Maximum Humidity 100    
Minimum Humidity 47    
Precipitation  
Precipitation 0.00 in 0.12 in 1.35 in (1990)
Month to date precipitation 0.47  
Year to date precipitation 34.68  
Snow  
Snow - 0.00 in T in (1992)
Month to date snowfall 0.0  
Since 1 July snowfall 0.0  
Since 1 September snowfall 0.0  
Snow Depth -    
Sea Level Pressure  
Sea Level Pressure 30.20 in    
Wind  
Wind Speed 0 mph ()    
Max Wind Speed 7 mph    
Max Gust Speed -    
Visibility 6.3 miles    
Events Fog , Rain    
T = Trace of Precipitation, MM = Missing Value Source: Averaged Metar Reports

Daily Weather History Graph

Daily Weather History Graph

Search for Another Location

Airport:

Trip Planner

Search our weather history database for the weather conditions in past years. The results will help you decide how hot, cold, wet, or windy it might be!

Date:

Astronomy

Nov. 04, 2012 Rise Set
Actual Time 6:34 AM CST 5:00 PM CST
Civil Twilight 6:06 AM CST 5:27 PM CST
Nautical Twilight 5:35 AM CST 5:59 PM CST
Astronomical Twilight 5:04 AM CST 6:30 PM CST
Moon 9:39 PM CST (11/4) 11:17 AM CST (11/4)
Length of Visible Light 11h 21m
Length of Day
10h 25m
Waning Gibbous, 72% of the Moon is Illuminated
Nov 4
Waning Gibbous
Nov 6
Last Quarter
Nov 13
New
Nov 20
First Quarter
Nov 28
Full

Hourly Weather History & Observations

Time (CST) Temp. Windchill Dew Point Humidity Pressure Visibility Wind Dir Wind Speed Gust Speed Precip Events Conditions
12:15 AM 37.4 °F - 35.6 °F 93% 30.21 in 7.0 mi Calm Calm - N/A   Mostly Cloudy
12:35 AM 35.6 °F - 35.6 °F 100% 30.21 in 5.0 mi Calm Calm - N/A   Scattered Clouds
12:55 AM 35.6 °F - 35.6 °F 100% 30.21 in 3.0 mi Calm Calm - N/A   Partly Cloudy
1:15 AM 35.6 °F - 35.6 °F 100% 30.20 in 4.0 mi Calm Calm - N/A   Scattered Clouds
1:35 AM 32.0 °F - 32.0 °F 100% 30.20 in 4.0 mi Calm Calm - N/A   Mostly Cloudy
1:55 AM 35.6 °F - 35.6 °F 100% 30.20 in 3.0 mi Calm Calm - N/A   Partly Cloudy
1:15 AM 32.0 °F - 32.0 °F 100% 30.21 in 4.0 mi Calm Calm - N/A   Clear
1:35 AM 32.0 °F - 32.0 °F 100% 30.21 in 4.0 mi Calm Calm - N/A   Clear
1:55 AM 30.2 °F - 30.2 °F 100% 30.22 in 5.0 mi Calm Calm - N/A   Partly Cloudy
2:15 AM 32.0 °F - 32.0 °F 100% 30.22 in 4.0 mi Calm Calm - N/A   Partly Cloudy
2:35 AM 32.0 °F - 32.0 °F 100% 30.22 in 4.0 mi Calm Calm - N/A   Clear
2:55 AM 28.4 °F - 28.4 °F 100% 30.22 in 4.0 mi Calm Calm - N/A   Partly Cloudy
3:15 AM 30.2 °F - 30.2 °F 100% 30.22 in 3.0 mi Calm Calm - N/A   Partly Cloudy
3:35 AM 28.4 °F - 28.4 °F 100% 30.21 in 5.0 mi Calm Calm - N/A   Mostly Cloudy
3:55 AM 28.4 °F - 28.4 °F 100% 30.22 in 4.0 mi Calm Calm - N/A   Scattered Clouds
4:15 AM 28.4 °F - 28.4 °F 100% 30.22 in 5.0 mi Calm Calm - N/A   Partly Cloudy
4:35 AM 28.4 °F - 28.4 °F 100% 30.22 in 2.5 mi Calm Calm - N/A   Mostly Cloudy
4:55 AM 28.4 °F - 28.4 °F 100% 30.22 in 5.0 mi Calm Calm - N/A   Mostly Cloudy
5:15 AM 28.4 °F - 28.4 °F 100% 30.22 in 0.5 mi Calm Calm - N/A Fog Light Freezing Fog
5:35 AM 28.4 °F - 28.4 °F 100% 30.22 in 0.2 mi Calm Calm - N/A Fog Light Freezing Fog
5:55 AM 28.4 °F - 28.4 °F 100% 30.23 in 0.2 mi Calm Calm - N/A Fog Light Freezing Fog
6:15 AM 26.6 °F - 26.6 °F 100% 30.23 in 0.2 mi Calm Calm - N/A Fog Light Freezing Fog
6:35 AM 28.4 °F - 28.4 °F 100% 30.24 in 0.2 mi Calm Calm - N/A Fog Light Freezing Fog
6:55 AM 28.4 °F - 28.4 °F 100% 30.25 in 0.2 mi Calm Calm - N/A Fog Light Freezing Fog
7:15 AM 28.4 °F - 28.4 °F 100% 30.25 in 0.2 mi Calm Calm - N/A Fog Light Freezing Fog
7:35 AM 28.4 °F - 28.4 °F 100% 30.26 in 0.2 mi Calm Calm - N/A Fog Light Freezing Fog
7:55 AM 30.2 °F - 30.2 °F 100% 30.27 in 0.2 mi Calm Calm - N/A Fog Light Freezing Fog
8:15 AM 30.2 °F - 30.2 °F 100% 30.27 in 0.2 mi Calm Calm - N/A Fog Light Freezing Fog
8:35 AM 32.0 °F - 32.0 °F 100% 30.27 in 0.2 mi Calm Calm - N/A Fog Light Freezing Fog
8:55 AM 32.0 °F - 32.0 °F 100% 30.26 in 0.2 mi Calm Calm - N/A Rain Light Rain
9:15 AM 33.8 °F - 33.8 °F 100% 30.25 in 1.0 mi Calm Calm - N/A   Overcast
9:35 AM 35.6 °F - 35.6 °F 100% 30.26 in 0.8 mi Calm Calm - N/A   Overcast
9:55 AM 37.4 °F - 37.4 °F 100% 30.26 in 4.0 mi Calm Calm - N/A   Scattered Clouds
10:55 AM 44.6 °F - 41.0 °F 87% 30.24 in 10.0 mi Calm Calm - N/A   Clear
11:35 AM 46.4 °F - 35.6 °F 66% 30.24 in 10.0 mi Calm Calm - N/A   Clear
11:55 AM 46.4 °F 45.2 °F 35.6 °F 66% 30.22 in 10.0 mi WSW 3.5 mph - N/A   Clear
12:15 PM 46.4 °F - 35.6 °F 66% 30.22 in 10.0 mi Calm Calm - N/A   Clear
12:35 PM 48.2 °F - 35.6 °F 62% 30.21 in 10.0 mi Calm Calm - N/A   Clear
12:55 PM 48.2 °F - 35.6 °F 62% 30.20 in 10.0 mi Calm Calm - N/A   Partly Cloudy
1:15 PM 48.2 °F - 35.6 °F 62% 30.20 in 10.0 mi Calm Calm - N/A   Clear
1:35 PM 48.2 °F - 35.6 °F 62% 30.19 in 10.0 mi Calm Calm - N/A   Partly Cloudy
1:55 PM 50.0 °F - 35.6 °F 58% 30.19 in 5.0 mi Calm Calm - N/A   Haze
2:15 PM 50.0 °F - 35.6 °F 58% 30.18 in 10.0 mi Calm Calm - N/A   Scattered Clouds
2:35 PM 50.0 °F - 32.0 °F 50% 30.18 in 10.0 mi Calm Calm - N/A   Partly Cloudy
2:55 PM 50.0 °F - 32.0 °F 50% 30.17 in 10.0 mi Calm Calm - N/A   Clear
3:15 PM 51.8 °F - 32.0 °F 47% 30.18 in 10.0 mi Calm Calm - N/A   Clear
3:35 PM 50.0 °F - 32.0 °F 50% 30.17 in 10.0 mi Calm Calm - N/A   Clear
3:55 PM 50.0 °F - 32.0 °F 50% 30.16 in 10.0 mi Calm Calm - N/A   Clear
4:15 PM 50.0 °F - 32.0 °F 50% 30.16 in 10.0 mi Calm Calm - N/A   Clear
4:35 PM 50.0 °F - 32.0 °F 50% 30.15 in 10.0 mi Calm Calm - N/A   Clear
4:55 PM 48.2 °F - 32.0 °F 54% 30.15 in 10.0 mi Calm Calm - N/A   Scattered Clouds
5:15 PM 48.2 °F - 32.0 °F 54% 30.15 in 10.0 mi Calm Calm - N/A   Scattered Clouds
5:35 PM 46.4 °F - 32.0 °F 57% 30.16 in 10.0 mi Calm Calm - N/A   Scattered Clouds
5:55 PM 46.4 °F - 32.0 °F 57% 30.16 in 10.0 mi Calm Calm - N/A   Mostly Cloudy
6:15 PM 44.6 °F - 32.0 °F 61% 30.16 in 10.0 mi Calm Calm - N/A   Mostly Cloudy
6:35 PM 44.6 °F - 32.0 °F 61% 30.16 in 10.0 mi Calm Calm - N/A   Mostly Cloudy
6:55 PM 42.8 °F - 32.0 °F 66% 30.16 in 10.0 mi Calm Calm - N/A   Overcast
7:15 PM 42.8 °F - 32.0 °F 66% 30.15 in 10.0 mi Calm Calm - N/A   Overcast
7:35 PM 42.8 °F - 32.0 °F 66% 30.15 in 9.0 mi Calm Calm - N/A   Overcast
7:55 PM 44.6 °F - 32.0 °F 61% 30.15 in 10.0 mi Calm Calm - N/A   Mostly Cloudy
8:15 PM 42.8 °F - 33.8 °F 70% 30.16 in 10.0 mi Calm Calm - N/A   Overcast
8:35 PM 42.8 °F - 35.6 °F 76% 30.15 in 10.0 mi Calm Calm - N/A   Overcast
8:55 PM 46.4 °F - 32.0 °F 57% 30.15 in 10.0 mi Calm Calm - N/A   Mostly Cloudy
9:15 PM 44.6 °F - 32.0 °F 61% 30.15 in 10.0 mi Calm Calm - N/A   Scattered Clouds
9:35 PM 44.6 °F - 33.8 °F 66% 30.15 in 10.0 mi Calm Calm - N/A   Mostly Cloudy
9:55 PM 44.6 °F 40.7 °F 33.8 °F 66% 30.14 in 10.0 mi ESE 6.9 mph - N/A   Overcast
10:15 PM 44.6 °F - 33.8 °F 66% 30.16 in 10.0 mi Calm Calm - N/A   Overcast
10:35 PM 44.6 °F - 33.8 °F 66% 30.15 in 10.0 mi Calm Calm - N/A   Mostly Cloudy
10:55 PM 44.6 °F - 33.8 °F 66% 30.15 in 10.0 mi Calm Calm - N/A   Mostly Cloudy